Simultaneous Nadir Overpasses (SNOs) Predictions

Prediction of SNOs between METOP-B and NPP Satellite Orbit:

Table of predicted SNOs for the next 14.0 days since TLE Epoch: 9/21/2013
Index Date (METOP-B) Time (METOP-B) Lat,Lon (METOP-B) SZA (METOP-B ) Date (NPP) Time (NPP) Lat,Lon (NPP) SZA (NPP ) Distance(km) Time Diff (sec)
1 09/22/2013 18:38:38 73.41,-106.03 73.34 09/22/2013 18:37:31 73.38,-108.88 73.41 90.48 67
2 09/22/2013 19:29:21 -73.33, 61.11 106.73 09/22/2013 19:28:13 -73.30, 58.62 106.67 79.54 68
3 09/22/2013 20:20:06 73.08,-132.09 73.06 09/22/2013 20:18:55 73.09,-133.59 73.12 48.64 71
4 09/22/2013 21:10:49 -73.00, 35.07 107.01 09/22/2013 21:09:37 -73.00, 33.90 106.96 37.84 72
5 09/22/2013 22:01:33 72.81,-158.01 72.82 09/22/2013 22:00:19 72.78,-158.32 72.82 10.61 74
6 09/22/2013 22:52:16 -72.73, 9.15 107.24 09/22/2013 22:51:01 -72.70, 9.16 107.26 2.79 75
7 09/22/2013 23:42:56 72.74, 176.50 72.78 09/22/2013 23:41:48 72.74, 176.41 72.80 3.13 68
8 09/23/2013 00:33:38 -72.71, -16.23 107.23 09/23/2013 00:32:31 -72.71, -16.21 107.23 0.61 67
9 09/23/2013 01:24:18 72.71, 151.12 72.79 09/23/2013 01:23:17 72.69, 151.13 72.77 3.08 61
10 09/23/2013 02:15:00 -72.69, -41.62 107.23 09/23/2013 02:14:01 -72.71, -41.59 107.20 2.61 59
11 09/23/2013 03:05:40 72.69, 125.73 72.80 09/23/2013 03:04:47 72.69, 125.75 72.80 0.84 53
12 09/23/2013 03:56:21 -72.71, -66.90 107.17 09/23/2013 03:55:31 -72.71, -66.97 107.17 2.50 50
13 09/23/2013 04:47:02 72.67, 100.35 72.80 09/23/2013 04:46:17 72.69, 100.38 72.83 2.46 45
14 09/23/2013 05:37:43 -72.69, -92.28 107.17 09/23/2013 05:37:01 -72.71, -92.35 107.14 3.07 42
15 09/23/2013 06:28:23 72.70, 75.07 72.86 09/23/2013 06:27:47 72.69, 75.00 72.86 2.42 36
16 09/23/2013 07:19:05 -72.67,-117.67 107.16 09/23/2013 07:18:30 -72.66,-117.62 107.16 1.68 35
17 09/23/2013 08:09:45 72.68, 49.68 72.87 09/23/2013 08:09:17 72.70, 49.62 72.89 2.83 28
18 09/23/2013 09:00:27 -72.65,-143.05 107.15 09/23/2013 09:00:00 -72.66,-143.00 107.14 2.38 27
19 09/23/2013 09:51:07 72.66, 24.30 72.87 09/23/2013 09:50:46 72.65, 24.34 72.86 1.91 21
20 09/23/2013 10:41:47 -72.68,-168.33 107.10 09/23/2013 10:41:29 -72.67,-168.38 107.11 2.06 18
21 09/23/2013 11:32:28 72.63, -1.09 72.88 09/23/2013 11:32:15 72.65, -1.03 72.89 2.34 13
22 09/23/2013 12:23:09 -72.66, 166.29 107.09 09/23/2013 12:22:59 -72.67, 166.24 107.08 1.96 10
23 09/23/2013 13:13:49 72.66, -26.37 72.93 09/23/2013 13:13:45 72.65, -26.41 72.92 2.10 4
24 09/23/2013 14:04:31 -72.63, 140.90 107.09 09/23/2013 14:04:28 -72.62, 140.97 107.10 2.77 3
25 09/23/2013 14:55:11 72.64, -51.75 72.94 09/23/2013 14:55:15 72.65, -51.79 72.95 1.77 4
26 09/23/2013 15:45:53 -72.61, 115.52 107.08 09/23/2013 15:45:58 -72.62, 115.59 107.07 2.63 5
27 09/23/2013 16:36:33 72.62, -77.14 72.95 09/23/2013 16:36:44 72.60, -77.07 72.93 2.96 11
28 09/23/2013 17:27:14 -72.64, 90.24 107.02 09/23/2013 17:27:28 -72.62, 90.21 107.04 2.17 14
29 09/23/2013 18:17:55 72.60,-102.52 72.95 09/23/2013 18:18:14 72.61,-102.44 72.96 2.67 19
30 09/23/2013 19:08:36 -72.62, 64.85 107.02 09/23/2013 19:08:58 -72.63, 64.83 107.01 0.88 22
31 09/23/2013 19:59:16 72.63,-127.80 73.01 09/23/2013 19:59:44 72.61,-127.82 72.99 2.29 28
32 09/23/2013 20:49:58 -72.60, 39.47 107.01 09/23/2013 20:50:28 -72.63, 39.45 106.98 3.29 30
33 09/23/2013 21:40:38 72.61,-153.19 73.01 09/23/2013 21:41:14 72.61,-153.20 73.02 0.72 36
34 09/23/2013 22:31:20 -72.58, 14.08 107.00 09/23/2013 22:31:57 -72.58, 14.18 107.01 3.23 37
35 09/23/2013 23:22:00 72.58,-178.57 73.02 09/23/2013 23:22:44 72.61,-178.58 73.04 3.16 44
36 09/24/2013 00:12:41 -72.61, -11.20 106.95 09/24/2013 00:13:27 -72.58, -11.20 106.98 2.74 46
37 09/24/2013 01:03:22 72.56, 156.05 73.03 09/24/2013 01:04:13 72.56, 156.15 73.02 3.30 51
38 09/24/2013 01:54:03 -72.58, -36.58 106.94 09/24/2013 01:54:57 -72.58, -36.58 106.95 0.19 54
39 09/24/2013 02:44:43 72.59, 130.77 73.08 09/24/2013 02:45:43 72.56, 130.77 73.05 2.87 60
40 09/24/2013 03:35:25 -72.56, -61.97 106.94 09/24/2013 03:36:27 -72.58, -61.96 106.92 2.57 62
41 09/24/2013 04:26:05 72.57, 105.38 73.09 09/24/2013 04:27:13 72.57, 105.39 73.08 0.31 68
42 09/24/2013 05:16:46 -72.59, -87.25 106.88 09/24/2013 05:17:57 -72.59, -87.33 106.89 2.91 71
43 09/24/2013 06:07:29 72.44, 79.79 73.00 09/24/2013 06:08:42 72.52, 80.11 73.05 13.47 73
44 09/24/2013 06:58:11 -72.42,-112.94 107.02 09/24/2013 06:59:24 -72.44,-112.40 107.02 18.02 73
45 09/24/2013 07:48:56 72.17, 53.91 72.77 09/24/2013 07:50:06 72.21, 55.34 72.76 49.07 70
46 09/24/2013 08:39:39 -72.09,-138.91 107.30 09/24/2013 08:40:48 -72.13,-137.18 107.32 59.44 69
47 09/24/2013 09:30:24 71.83, 27.95 72.49 09/24/2013 09:31:30 71.91, 30.55 72.47 90.67 66




NCC Satellite Simultaneous Nadir Overpasses (SNOs)
